DECAYED

STARLINK-1670, 46370 (Decayed)

Orbit data source: Space-Track

STARLINK-1670, 46370 was a payload satellite owned by SpaceX/Seattle (US) in LEO that was launched on Thu, 03 Sep 2020 UTC via an FALCON 9 launch vehicle from the Air Force Eastern Test Range (AFETR). Payload-class satellites include a variety of spacecraft equipped with specific instruments for various scientific and technological missions. These include communications satellites like Starlink; space stations such as the ISS; scientific satellites like the Hubble; Earth observation satellites from companies like Planet Labs, Umbra, and HawkEye 360; GPS; miniature CubeSats for education and research; and military/defense satellites.

Not visible in the next 10 days
Identifier
46370, 2020-062AX
Orbit
Decayed
Country
Flag of USUS
Related business
Manufacturer
SpaceX/Seattle
Mission
Decayed Commercial Communications
Bus & Motor
STARLINK, Unknown motor
Mass
260 kg wet, ~248 kg dry
Launch date (UTC)
2020-09-03 (5 years ago)
Launch vehicle
FALCON 9
Launch site
Air Force Eastern Test Range (AFETR)
Object type
Payload
Rocket body
Debris
Shape & HBR
Box + 1 Pan, 4.4 m
Radar Cross Section
13.562 m², Large (>1 m²)

Expand to show TLE details & history
Last TLE update: 7 months ago

TLE from 7 months ago
0 STARLINK-1670
1 46370U 20062AX  25039.25048788  .13383078  12515-4  40460-3 0  9999
2 46370  53.0397 280.3422 0002171 285.2260 177.9721 16.45205127245868
Epoch: 2025-02-08T06:00Z
TLE epoch observation values (Epoch: 2025-02-08T06:00:42.152Z)
Latitude
51.22993°
Longitude
162.89797°
Altitude
159.445 km
Speed
7.816 km/s
True Right ascension
02h 06m 41s
True Declination
51° 02' 47"
Sunlit
Object was in daylight at epoch
Visualization orbit readout
Latitude
Unknown
Longitude
Unknown
Altitude
Unknown
Speed
Unknown
Apparent Right ascension
Unknown
Apparent Declination
Unknown
Sunlit
N/A
Visualization observer readout
Local Sidereal Time
17:40:54
Azimuth
Unknown
Elevation
Unknown
Doppler factor
Unknown
Orbital elements
Apogee altitude
153.7 km
Perigee altitude
150.864 km
Semi-major axis
6,530.419 km
Eccentricity
0.00022
Inclination
53.0397°
RAAN
280.3422°
Arg. of periapsis
285.226°
True anomaly
177.97298°
Mean anomaly
177.9721°
Eccentric anomaly
177.97254°
Mean motion
4.11274 °/min
Orbital period
87.53 mins
BSTAR
0.0004046
Loading maneuver chart data...
Computing Atmospheric mass density...
Loading historical data...
Loading historical data...
Loading historical data...
Loading historical data...
Loading historical data...
Loading historical data...
Loading historical data...

Documentation

Showing up to 5 results
|